カタログに戻る

STARLINK-30193

運用中通信VLEO
NORAD 57414·PAYLOAD·🇺🇸 United States

打ち上げ Jul 20, 2023 から Vandenberg Space Force Base

Loading…

次のパス (今後24時間)

TLE

最新Source: CelesTrak SupGP

元期: Sep 15, 2026, 03:23 UTC

1 57414C 23102L   26258.14145833  .00047440  00000+0  42156-3 0  2588
2 57414  42.9980 234.2920 0007394 136.5488 210.5481 15.67529404    10

AllMySatでSTARLINK-30193をリアルタイム追跡

Download on the App Store